Temp
86 85 83 82 84 84 83 83 82 81 82 81 81 79 79 78 76 74 75 73 72 72
86 87 84 85 84 83 82 84 82 82 81 81 81 81 79 78 77 76 75 74 72 72
86 87 86 86 85 85 84 84 83 82 81 81 80 79 80 78 78 77 77 76 75 74
86 87 87 86 85 85 85 84 82 81 80 79 79 79 77 79 78 76 77 78 77 76
84 88 87 88 88 86 86 84 81 81 80 79 78 78 77 77 76 75 75 75 75 75
86 86 88 85 86 85 80 80 80 81 79 78 78 77 77 75 75 75 75 75 76 75
85 86 84 82 81 80 81 80 78 80 80 79 78 78 77 75 74 74 76 76 76 75
85 86 85 81 80 79 80 79 78 78 79 79 79 79 74 74 73 72 73 75 77 78
85 84 83 81 79 79 79 79 79 77 77 77 81 69 70 72 74 73 72 73 74 77
85 83 80 78 79 79 77 77 76 76 77 76 77 70 69 70 74 74 73 72 74 76
79 77 77 78 77 76 75 75 75 75 74 73 75 70 67 68 73 73 74 73 73 73
76 77 77 76 74 74 73 73 73 72 71 71 71 63 62 66 72 72 71 72 72 70
74 72 74 74 72 72 72 71 73 72 73 71 62 60 60 63 67 64 65 68 70 67
75 73 73 71 72 71 71 71 71 72 72 66 64 60 59 59 61 60 62 64 66 70
MSLP
1011.98 1012.16 1012.32 1012.46 1012.35 1012.55 1012.32 1012.39 1012.60 1012.59 1012.35 1012.15 1011.88 1011.69 1011.41 1011.04 1010.79 1010.47 1009.87 1009.92 1010.16 1010.33
1012.11 1012.19 1012.36 1012.48 1012.61 1012.75 1012.72 1012.77 1012.86 1012.80 1012.49 1012.06 1011.69 1011.38 1011.15 1010.85 1010.63 1010.55 1010.33 1010.24 1010.10 1010.57
1012.06 1012.17 1012.37 1012.46 1012.69 1012.83 1012.90 1013.00 1012.88 1012.73 1012.48 1012.13 1011.76 1011.44 1011.06 1010.78 1010.52 1010.50 1010.38 1010.34 1010.11 1010.03
1011.76 1012.08 1012.43 1012.49 1012.65 1012.76 1012.88 1012.88 1012.74 1012.69 1012.59 1012.36 1012.01 1011.64 1011.27 1010.77 1010.57 1010.54 1010.35 1010.15 1010.05 1009.88
1011.61 1011.79 1012.11 1012.30 1012.37 1012.52 1012.67 1012.88 1012.81 1012.62 1012.60 1012.43 1012.17 1011.77 1011.49 1011.23 1011.03 1010.83 1010.52 1010.21 1010.01 1009.75
1011.69 1011.81 1011.84 1012.03 1012.23 1012.46 1012.74 1012.89 1012.83 1012.65 1012.55 1012.43 1012.17 1011.86 1011.69 1011.54 1011.29 1011.02 1010.62 1010.22 1009.90 1009.63
1011.59 1011.87 1012.08 1012.22 1012.54 1012.85 1012.90 1012.85 1012.90 1012.60 1012.39 1012.19 1011.91 1011.85 1011.84 1011.76 1011.59 1011.27 1010.77 1010.23 1009.75 1009.38
1011.55 1011.89 1012.15 1012.57 1012.77 1013.04 1013.02 1012.99 1012.82 1012.53 1012.32 1012.12 1011.81 1011.89 1011.83 1011.70 1011.62 1011.46 1010.95 1010.36 1009.73 1009.27
1011.56 1011.84 1012.21 1012.53 1012.82 1012.82 1012.95 1012.86 1012.69 1012.52 1012.37 1012.14 1011.88 1011.86 1011.75 1011.71 1011.51 1011.30 1010.99 1010.32 1009.69 1009.13
1011.69 1011.99 1012.32 1012.60 1012.68 1012.67 1012.87 1012.88 1012.80 1012.67 1012.42 1012.15 1012.03 1011.91 1011.97 1011.86 1011.53 1011.03 1010.70 1010.44 1009.79 1009.32
1012.15 1012.51 1012.73 1012.72 1012.86 1012.85 1012.95 1012.94 1012.93 1012.75 1012.64 1012.59 1012.48 1012.28 1012.04 1011.94 1011.44 1011.08 1010.60 1010.44 1010.05 1009.50
1012.67 1013.12 1013.13 1012.99 1013.22 1013.45 1013.43 1013.30 1013.22 1013.26 1012.90 1012.63 1012.79 1013.13 1012.91 1012.29 1011.63 1011.28 1010.99 1010.76 1010.32 1009.97
1013.00 1013.27 1013.75 1013.57 1013.78 1013.81 1013.68 1013.49 1013.45 1013.33 1012.96 1012.71 1013.97 1014.02 1013.66 1013.45 1012.94 1012.53 1012.22 1011.26 1010.55 1010.07
1013.63 1013.95 1013.98 1013.95 1014.21 1014.08 1013.93 1013.61 1013.33 1013.21 1013.20 1013.79 1014.00 1014.39 1014.13 1014.04 1014.07 1014.15 1013.22 1012.10 1011.14 1010.41
Wind_Speed
3 3 1 5 4 4 4 5 7 6 5 7 7 7 6 6 5 9 5 4 3 4
2 1 4 4 4 5 6 5 6 6 8 8 8 5 5 5 4 5 6 4 2 1
4 2 2 1 3 3 3 3 3 4 6 7 7 10 7 5 4 4 4 4 5 4
4 5 3 3 4 3 3 4 5 5 7 8 9 9 10 7 6 7 6 4 5 6
3 2 4 2 2 4 1 4 6 5 6 8 8 8 8 9 9 10 8 8 8 7
4 4 1 1 4 5 6 6 8 5 5 6 8 7 8 8 9 9 9 8 7 6
4 4 5 5 7 7 6 6 7 5 5 5 9 5 6 6 8 10 10 10 7 7
4 0 3 5 6 6 6 6 6 7 7 6 8 4 3 5 6 8 11 12 9 9
3 1 2 4 5 6 7 6 7 7 8 9 8 2 3 3 5 7 10 9 11 8
2 1 4 5 5 4 6 7 7 8 8 9 9 1 2 5 6 8 8 10 9 9
5 6 6 4 6 7 7 7 8 9 10 10 8 5 5 7 8 8 7 10 12 12
7 7 7 6 7 8 8 8 8 9 9 8 11 22 21 13 10 10 11 11 12 8
6 7 8 8 8 7 7 7 7 7 7 9 12 17 21 18 10 13 12 12 11 6
7 5 6 7 6 6 5 6 5 6 7 11 8 13 22 21 12 10 11 10 10 11
Wind_Direction
139 223 33 52 19 323 20 18 28 354 341 335 322 323 324 316 344 336 345 352 321 270
157 35 49 39 7 23 33 1 14 346 343 343 335 318 322 321 344 346 347 17 359 299
152 71 103 108 64 46 46 6 329 339 341 342 344 346 333 325 3 334 322 331 330 317
173 116 240 153 122 101 52 336 336 15 357 350 347 344 344 346 347 335 328 297 280 285
128 106 127 30 35 85 44 346 347 25 3 349 339 334 333 15 5 354 341 317 317 313
150 198 236 101 56 10 30 354 346 7 351 347 333 331 22 7 353 337 327 336 324 289
104 37 16 17 16 3 348 353 337 336 336 341 323 42 14 12 351 342 332 319 311 310
148 155 14 14 1 341 333 328 323 316 330 331 319 48 21 12 349 329 327 318 337 331
170 29 344 350 344 324 317 320 329 335 334 329 326 129 82 6 332 331 317 320 320 325
213 309 12 340 313 340 344 337 339 332 319 322 331 99 336 324 314 313 326 312 318 324
18 11 351 349 6 12 1 350 339 339 5 355 346 301 258 295 307 316 333 333 319 316
37 11 4 15 20 6 354 346 358 348 347 335 8 46 27 359 339 344 348 352 331 344
38 34 337 24 17 4 356 345 337 328 318 313 73 42 39 21 16 1 343 327 326 12
33 327 50 29 357 337 325 298 301 346 350 93 98 52 37 33 15 355 328 329 316 310